Wind_Speed
14 14 14 13 13 12 11 11 10 10 10 9 9 9 10 11 12 13 14 14 15 16 18 19 18 16 14 15 18 20 21 22 23 25 26 28 34 38 39 42 45 45 44 40 37 38 39 39 39 38 33 29 29 32 33 32 31 31 31 31 30 30 30 29 30 32 33 33 33 33 32 31 30 29 29 29 29 29 29 30 30 29 28 27 27 27 27
15 14 14 13 12 11 11 10 9 9 9 8 8 8 10 11 12 13 13 14 15 17 18 17 16 14 14 16 19 20 21 22 23 25 26 27 33 38 40 41 44 47 47 44 39 37 37 37 38 38 36 30 26 29 33 35 34 32 32 33 32 31 31 31 32 34 36 36 35 33 33 32 31 30 30 30 30 31 31 31 31 31 30 29 28 28 27
15 14 13 12 12 11 10 9 9 9 8 8 7 8 9 10 11 12 13 14 15 17 17 16 15 15 16 18 20 20 20 20 20 23 26 27 31 36 39 41 43 45 47 47 43 37 34 33 34 36 37 33 27 25 29 33 35 34 34 34 33 32 32 33 33 35 37 37 35 34 33 33 31 31 31 30 31 32 33 34 34 34 33 31 30 29 27
15 14 13 12 11 11 10 9 8 8 7 7 7 8 8 9 10 11 12 13 14 16 16 14 14 15 17 19 19 18 18 17 18 20 24 26 27 32 37 39 41 42 43 46 47 43 35 31 31 34 36 35 31 27 26 28 32 33 34 34 34 33 33 33 33 35 37 38 37 35 34 34 33 33 32 32 32 32 33 35 36 36 36 34 32 30 28
15 13 12 12 11 10 9 9 8 7 6 6 7 7 7 8 9 10 11 11 13 14 14 13 13 14 16 16 16 16 15 13 13 16 21 22 23 27 33 35 37 39 40 43 47 46 40 33 31 32 35 34 32 30 28 27 28 31 31 32 33 33 33 34 33 33 35 37 38 38 36 35 35 35 34 34 33 33 34 35 37 38 38 37 36 34 31
14 13 12 12 11 10 9 8 7 6 5 6 6 6 7 8 9 10 11 11 12 13 13 11 11 13 14 14 14 14 11 8 7 10 16 17 18 21 27 30 31 34 37 40 43 44 41 38 34 32 33 33 31 30 30 27 26 28 29 29 30 31 31 32 31 31 31 33 37 39 38 36 35 35 35 35 35 34 34 35 36 38 39 39 38 37 34
13 13 12 11 11 10 9 7 6 5 5 5 5 5 6 7 9 10 11 11 12 14 13 10 10 12 12 12 11 10 8 6 4 6 11 13 14 17 21 24 26 28 32 37 40 40 39 39 38 36 34 33 30 29 29 27 25 24 25 25 26 27 28 28 28 29 29 29 32 35 36 36 36 36 36 36 37 37 36 35 35 36 38 39 39 39 36
13 13 12 11 11 10 8 7 6 5 4 4 4 4 5 6 8 10 10 10 11 12 12 10 8 10 11 10 8 6 6 4 2 4 7 10 12 14 17 19 21 23 26 31 36 39 38 38 39 39 38 34 29 26 25 26 26 23 22 23 23 24 24 24 24 26 28 28 29 31 32 33 35 37 38 37 36 38 39 37 36 36 37 39 40 40 39
14 13 12 12 11 9 7 6 5 4 3 3 4 4 5 5 7 8 9 10 10 11 11 10 8 8 10 10 6 3 4 2 3 5 7 9 11 13 14 15 16 19 22 25 30 35 38 37 37 38 39 35 30 26 24 23 25 24 22 21 21 21 21 21 21 23 24 26 28 29 30 30 32 36 39 40 39 39 39 39 39 38 38 39 40 41 40
14 13 13 12 10 9 7 6 5 3 3 3 3 4 4 4 6 7 7 9 10 9 10 11 10 8 9 10 8 3 2 1 2 4 5 6 8 10 12 12 13 15 18 22 25 29 33 36 37 38 39 35 30 27 26 24 24 24 22 21 21 21 20 21 21 22 22 23 25 26 27 28 29 31 35 40 44 44 42 40 40 40 39 36 34 34 36
14 13 13 11 10 8 7 6 4 2 2 2 3 4 3 4 6 6 6 8 9 9 8 10 11 11 9 9 10 7 3 0 1 3 4 5 6 7 8 10 12 13 15 18 22 25 27 31 35 37 39 39 33 28 26 25 24 23 22 22 22 21 19 19 19 19 19 21 22 22 23 24 26 29 32 35 39 42 42 41 39 38 36 33 28 28 30
14 14 13 11 9 8 7 5 3 2 2 2 2 3 3 3 5 5 5 7 9 8 8 10 11 12 10 8 8 9 7 3 0 3 5 6 8 9 10 11 11 12 13 14 18 22 25 28 31 35 39 41 38 32 28 26 24 23 23 22 22 20 18 17 17 15 15 16 17 18 18 18 19 22 24 24 27 34 36 36 35 34 32 30 28 28 29
14 14 12 10 9 7 6 4 3 1 1 1 2 2 3 3 4 4 5 7 8 8 9 9 10 10 10 8 7 7 7 6 5 3 2 4 6 8 9 11 11 11 11 12 14 18 21 24 28 32 36 38 38 36 33 29 25 23 23 22 22 21 20 18 18 17 15 15 15 15 15 14 14 14 13 12 16 24 28 28 29 29 28 26 25 25 24
15 14 12 10 8 7 5 4 2 1 1 1 1 2 2 3 4 4 5 6 8 8 8 9 8 8 9 8 8 8 7 7 7 7 6 6 5 3 6 9 10 10 11 11 13 15 18 22 24 27 31 33 33 34 35 34 30 27 25 25 25 26 26 26 25 24 23 22 19 17 14 12 12 12 11 11 12 16 20 22 25 26 27 27 27 25 24
15 14 12 10 8 7 6 4 2 1 1 1 2 2 2 3 4 4 4 5 7 8 8 8 8 8 8 8 8 8 8 8 8 8 8 8 7 4 2 7 9 9 10 11 13 15 17 20 22 24 26 28 29 30 32 33 32 29 28 27 27 27 28 29 29 29 30 29 28 26 21 18 16 14 12 12 12 14 17 20 23 25 27 27 27 27 27
16 14 12 10 9 7 6 4 2 1 2 3 3 2 3 3 3 4 4 5 6 7 8 8 7 7 7 7 7 8 8 9 9 9 9 9 8 7 3 3 6 8 9 11 14 17 18 19 21 23 24 25 26 26 28 29 29 28 26 26 27 27 27 28 29 29 30 30 31 31 29 26 24 22 19 17 15 15 18 20 23 24 25 26 26 26 27
16 14 12 10 9 7 6 4 2 2 2 2 3 2 2 3 4 4 4 4 4 6 6 7 7 6 6 6 7 8 9 10 11 11 10 10 9 8 7 3 3 6 9 10 12 16 19 20 21 22 23 24 25 26 27 28 28 28 27 26 26 26 26 27 28 29 30 30 29 30 29 28 27 27 26 24 22 20 19 20 21 22 23 24 25 26 26
16 14 12 10 9 8 6 4 2 2 2 3 3 3 2 3 3 3 3 3 3 4 5 5 5 5 6 8 9 10 11 12 13 13 12 12 11 10 9 6 3 4 6 9 11 14 18 20 21 21 21 22 23 25 26 27 28 28 28 27 26 27 27 27 27 28 29 28 26 25 26 27 26 27 27 27 26 25 23 21 19 20 21 22 22 23 23
17 14 12 11 9 8 6 4 3 2 2 3 3 3 3 2 2 3 3 3 3 3 4 4 4 6 8 9 10 11 12 13 14 13 13 13 13 12 10 9 7 5 6 8 10 12 15 18 20 21 20 20 21 21 23 25 26 27 27 27 27 27 26 26 26 26 27 26 25 23 24 25 25 25 26 26 27 27 26 25 24 23 21 20 20 21 22
17 15 13 11 9 8 6 4 3 2 2 3 3 4 3 2 2 3 3 3 3 3 3 4 5 7 9 10 10 11 12 13 14 15 15 15 15 14 13 12 11 9 7 8 10 12 13 15 17 19 19 19 19 20 20 21 23 24 25 26 26 25 25 26 25 25 25 25 24 24 25 25 25 24 24 26 27 27 26 27 28 29 26 23 21 23 24
18 15 13 11 10 8 6 5 3 2 3 3 4 3 3 2 3 4 3 3 3 4 4 4 6 8 8 9 10 11 13 15 16 17 17 17 17 16 16 16 15 14 11 9 10 13 14 15 15 16 17 17 17 17 18 19 20 21 22 23 23 23 24 25 24 24 24 24 24 24 24 24 24 23 23 24 25 26 26 27 28 30 29 25 22 22 24
18 15 13 12 10 8 7 5 4 3 3 4 4 3 3 3 4 4 3 3 4 4 5 5 7 8 8 9 10 12 14 16 17 18 18 18 18 18 18 19 19 19 16 11 10 13 14 15 14 14 15 16 17 17 17 17 18 18 19 20 21 21 22 22 23 23 22 23 23 23 23 23 23 22 22 23 24 24 26 27 28 29 30 28 24 22 22
18 16 14 12 10 8 7 6 4 3 4 4 4 4 3 3 4 4 3 3 4 5 5 6 6 7 7 8 10 12 14 15 17 18 19 19 19 19 20 21 22 22 18 12 9 10 12 13 12 13 13 14 15 16 17 17 17 17 17 18 19 19 20 21 22 21 20 21 23 23 22 21 21 21 21 22 22 23 24 26 26 27 28 28 28 26 25
19 17 15 13 11 9 7 6 4 3 4 5 5 4 3 3 3 4 3 3 3 5 5 5 6 6 7 8 9 11 13 15 17 18 18 19 20 20 21 22 23 23 20 13 8 7 7 9 10 11 11 12 12 13 14 15 17 18 18 18 19 19 19 20 22 22 20 20 21 22 21 20 19 19 19 19 20 21 21 22 23 24 25 27 29 30 29
20 17 15 14 11 9 8 6 4 3 4 5 5 4 4 3 3 3 3 3 4 4 5 5 5 5 5 6 8 10 12 14 16 17 18 19 20 21 22 22 24 25 22 16 10 7 5 5 7 8 9 10 11 11 11 12 13 14 16 17 18 19 20 21 22 22 22 21 20 20 21 21 20 19 19 19 19 19 20 20 21 22 23 25 27 29 29
20 18 16 14 12 10 8 6 4 3 3 4 4 4 3 4 4 4 3 4 4 5 6 6 5 5 4 5 7 10 11 13 15 17 18 19 20 21 22 23 24 25 25 21 14 9 6 4 4 5 6 7 8 8 9 9 10 11 12 13 14 16 18 20 21 22 22 22 21 21 21 21 21 21 21 21 21 21 21 22 22 22 23 24 25 26 26
21 19 17 15 13 10 8 6 5 3 3 4 4 4 3 3 4 4 4 4 4 5 5 5 4 4 3 4 6 8 10 12 14 16 17 18 19 20 21 22 24 25 26 24 20 14 9 6 3 2 3 4 5 6 7 8 9 9 10 10 11 13 14 16 18 19 20 21 21 21 22 22 23 23 24 24 25 25 25 25 26 26 27 28 28 29 29
21 19 17 15 13 11 9 7 5 3 3 3 3 3 2 3 3 3 4 4 4 4 5 4 4 3 2 3 5 7 9 11 13 14 16 18 19 19 20 22 23 24 25 25 23 19 14 10 7 4 2 2 3 4 5 6 7 8 8 8 9 10 11 12 14 15 16 18 19 20 21 21 22 23 24 25 26 27 28 29 30 30 31 31 32 32 33
21 20 18 16 14 11 9 7 5 4 3 3 3 2 2 2 2 3 4 4 4 5 5 4 4 3 1 2 4 6 8 10 12 13 15 17 17 18 19 21 22 23 24 25 25 23 19 14 10 7 5 2 1 2 3 5 6 6 7 8 9 10 11 12 14 14 15 17 18 19 20 21 21 22 23 24 25 26 27 29 30 31 32 33 34 35 35
22 20 18 16 14 12 9 7 6 5 3 3 2 2 2 2 2 2 3 4 4 4 4 4 4 3 1 1 3 5 7 9 10 12 14 15 16 17 18 20 21 22 23 24 24 24 22 20 15 11 8 6 4 2 2 3 5 6 6 7 8 10 11 13 14 15 15 16 17 18 19 20 21 22 22 23 24 24 25 26 27 28 29 30 32 33 34
22 20 18 16 14 12 10 8 6 5 4 3 2 2 2 2 2 2 2 3 4 5 4 4 3 3 2 0 2 4 7 8 9 11 13 14 15 16 17 18 20 21 21 22 23 23 23 22 20 16 13 10 7 4 3 3 4 5 7 9 10 11 12 13 14 15 16 16 17 17 18 19 20 21 21 22 23 24 24 25 25 26 27 27 27 28 28
22 20 18 17 15 12 10 8 7 6 5 3 2 1 1 2 3 2 2 3 4 5 5 4 4 3 3 1 1 4 5 7 8 10 11 12 13 15 16 18 19 20 20 20 21 21 21 21 21 20 18 15 12 8 5 4 5 6 7 9 11 12 13 13 14 14 15 16 16 16 17 18 19 19 20 20 20 21 23 23 24 25 25 25 25 26 26
22 20 19 17 15 13 11 9 8 6 5 4 3 2 1 2 3 3 2 2 3 4 5 4 4 4 3 2 2 3 4 6 8 9 10 11 12 14 15 17 18 19 19 20 20 20 20 20 19 20 20 18 17 14 10 7 7 7 8 9 9 10 11 13 14 14 15 15 16 17 17 17 18 19 19 19 20 21 22 23 24 25 25 25 25 26 26
22 20 19 18 16 14 11 10 8 7 6 5 4 2 1 2 3 4 3 3 3 4 4 5 5 6 5 4 4 3 3 5 7 8 9 10 11 12 14 15 16 17 19 19 19 19 19 19 18 18 19 19 18 18 16 14 12 10 9 10 10 10 10 11 12 13 14 15 16 17 17 18 18 18 18 19 20 21 22 24 24 25 25 26 26 26 26
22 21 20 18 16 14 12 10 9 7 7 6 5 3 2 2 3 4 4 3 3 4 5 5 6 6 6 6 5 4 4 4 6 7 8 10 10 11 13 14 15 16 17 18 18 18 19 19 18 17 18 18 18 19 19 18 17 16 13 11 10 11 11 12 12 13 13 14 14 15 16 17 18 18 18 19 19 20 21 22 23 24 24 25 25 25 26
23 22 20 19 17 15 13 11 10 8 7 7 6 4 3 3 3 4 4 4 3 4 4 5 6 7 7 7 7 6 6 5 5 6 8 9 10 11 12 13 13 14 15 16 16 17 19 19 18 17 17 17 17 18 19 19 19 18 17 14 11 10 10 12 13 13 14 14 14 14 15 15 16 17 18 18 19 20 21 22 23 24 24 24 24 24 24
24 23 21 20 17 15 13 11 10 9 8 8 7 5 4 3 3 4 4 4 3 3 4 5 6 7 7 8 8 8 7 7 6 7 8 9 9 10 11 12 13 14 14 14 15 16 18 18 18 17 17 17 17 17 18 19 19 20 19 18 16 13 11 10 11 13 14 15 16 17 17 16 16 16 17 17 17 18 20 21 22 23 24 24 24 24 24
25 24 22 20 18 16 13 12 10 9 9 8 8 6 4 4 4 4 4 4 3 3 4 5 6 6 7 8 9 9 8 8 8 8 9 9 10 10 11 11 13 14 14 14 15 15 16 17 17 17 17 17 16 17 17 18 19 20 20 20 19 17 15 12 11 12 13 15 17 18 19 20 20 19 19 18 18 18 19 19 20 21 22 23 23 23 23
25 24 22 20 18 16 14 13 11 10 10 9 8 6 5 4 4 4 5 4 4 3 4 5 6 7 7 7 8 9 9 9 10 10 10 11 11 11 12 12 13 14 14 15 15 15 15 16 16 17 17 17 16 16 17 17 18 19 20 20 20 19 18 16 14 13 13 14 16 18 19 20 21 21 21 21 21 20 20 20 20 21 21 21 22 22 22
25 24 22 20 18 17 15 14 12 11 10 10 9 7 6 5 4 5 5 4 4 4 4 5 6 7 7 7 8 9 9 10 10 11 11 12 11 12 13 13 13 14 15 15 15 15 15 16 16 16 16 16 16 16 16 16 17 18 19 20 21 20 20 18 17 15 14 15 16 17 17 18 19 20 21 21 21 21 22 21 21 22 22 22 22 22 22
25 24 22 21 19 17 16 14 13 12 11 10 9 8 6 5 5 5 5 5 5 5 5 5 6 7 7 7 7 8 9 10 11 11 11 12 12 12 13 14 14 14 15 15 15 16 16 16 17 17 17 17 16 16 16 16 16 17 18 19 21 21 20 20 18 17 16 16 16 16 16 17 18 18 19 20 20 20 21 21 21 22 22 22 22 22 22
25 24 23 21 19 18 16 14 13 12 11 10 9 8 7 5 5 5 5 5 5 5 5 6 6 7 8 7 7 8 9 10 11 11 11 12 12 12 13 14 14 14 15 15 15 16 17 17 17 17 17 17 17 16 16 16 16 16 17 18 20 21 22 21 20 18 17 17 17 16 16 15 16 17 17 18 19 19 19 20 20 21 21 21 21 21 21
25 24 23 21 20 18 16 15 13 12 11 10 9 8 7 6 5 4 4 4 4 5 6 7 7 7 8 8 8 9 9 10 10 11 11 11 11 12 13 13 14 14 14 14 15 16 17 17 18 18 18 17 17 17 17 17 16 16 16 17 19 20 22 22 22 20 19 18 17 16 15 14 14 14 16 17 18 19 19 19 20 20 20 21 21 21 21
24 24 23 22 20 18 16 15 13 12 11 10 9 8 8 7 6 4 4 4 5 6 6 6 7 7 8 9 9 9 9 10 10 10 10 11 11 12 12 13 13 14 14 14 14 15 17 17 17 18 18 17 17 17 17 17 17 16 16 17 18 20 22 23 23 22 20 19 18 16 15 14 13 13 14 15 16 17 18 18 19 19 19 20 20 20 20
24 24 23 21 20 18 16 15 13 12 10 10 9 9 9 8 7 5 5 6 6 6 5 6 7 8 9 9 10 9 9 10 10 10 10 11 11 11 12 12 13 14 14 14 14 16 17 17 17 18 17 17 16 17 17 17 17 17 17 17 18 20 21 23 23 23 22 21 19 17 15 14 13 13 13 14 15 15 16 16 16 17 17 18 19 19 19
24 23 23 22 20 18 16 14 13 11 11 11 10 10 9 8 7 7 6 7 7 6 6 6 7 8 9 10 10 10 10 10 9 9 10 11 11 11 11 12 13 14 14 15 15 16 17 17 18 18 18 17 16 16 17 17 18 18 17 18 18 19 20 22 23 23 22 22 20 18 16 15 14 13 13 13 14 15 15 15 15 15 16 17 17 17 17
23 23 23 22 20 18 16 14 13 12 12 11 10 9 9 8 8 8 8 7 7 7 7 7 8 9 10 10 10 10 10 10 10 10 11 11 11 11 11 12 13 14 15 15 16 16 17 18 18 18 18 17 17 16 16 16 17 17 18 18 18 19 20 21 23 23 22 22 22 20 17 15 15 14 13 12 13 13 14 14 14 14 14 15 15 16 16
23 23 23 22 19 17 15 14 13 12 12 11 10 9 9 9 8 8 8 7 7 7 8 8 8 9 10 10 10 10 10 10 10 10 11 11 11 12 12 12 12 14 15 16 16 17 17 18 19 18 18 17 17 17 16 16 16 17 17 17 18 19 20 21 22 23 22 22 22 21 19 16 15 14 13 12 11 12 13 13 13 13 14 14 14 14 14
24 24 23 21 18 16 15 14 13 12 12 11 11 10 9 9 8 8 8 7 8 8 9 9 9 9 9 9 9 10 10 10 10 10 11 11 12 13 13 13 13 14 16 16 17 17 18 19 19 19 18 17 17 17 16 16 16 16 16 17 18 18 19 20 21 22 23 22 22 21 20 18 15 14 13 13 12 12 13 13 13 13 14 14 13 12 11
24 24 22 20 18 17 16 14 13 12 12 11 11 9 9 8 8 8 8 8 8 9 9 9 9 9 8 8 8 8 9 9 10 10 10 11 12 13 14 15 15 15 16 16 17 18 19 19 19 19 18 18 17 17 17 16 16 16 16 16 17 18 19 20 20 21 22 23 22 21 20 19 17 15 14 14 14 13 13 13 13 13 13 12 11 11 11
24 23 21 20 18 17 16 15 14 13 12 11 11 10 9 9 9 8 8 9 9 9 9 8 8 8 8 8 8 8 8 9 9 9 9 10 12 13 14 16 16 16 16 17 17 18 18 18 18 18 18 17 17 17 17 17 17 17 17 16 17 17 18 19 20 20 21 22 22 22 21 19 18 16 15 14 14 14 13 12 11 11 11 12 12 13 13
23 22 20 19 18 17 16 15 14 13 13 12 11 10 9 9 9 8 8 8 8 8 7 7 7 7 7 7 7 8 8 8 9 9 9 10 12 13 14 15 16 16 16 16 17 18 17 17 17 17 17 17 17 17 17 17 17 18 18 17 17 17 18 19 19 20 20 21 21 22 21 20 18 17 16 15 14 13 12 11 11 11 11 12 13 13 13
Wind_Direction
225 222 221 225 230 235 238 239 243 247 247 245 249 260 271 278 282 285 289 294 295 295 297 296 293 291 292 292 291 287 280 275 271 266 256 241 230 224 220 217 217 216 216 215 213 216 222 224 224 224 222 221 222 222 222 222 222 219 218 220 220 220 221 218 217 222 225 225 223 222 223 225 226 227 229 231 233 233 233 233 234 235 236 237 238 239 239
216 215 217 223 230 234 236 237 239 239 238 241 253 267 275 280 285 290 295 300 302 304 306 303 299 295 292 294 294 287 278 273 268 260 252 241 232 226 220 218 218 218 218 219 216 214 217 222 225 226 225 223 224 223 221 220 221 220 220 222 222 223 224 221 219 222 226 228 227 225 224 225 227 229 230 232 234 235 235 234 233 233 236 238 239 240 242
209 211 215 222 228 233 234 233 230 230 235 246 261 271 278 285 291 296 302 306 309 314 313 306 297 290 290 297 299 289 279 275 270 259 249 239 233 227 222 219 219 220 220 221 220 218 216 218 224 228 229 228 227 224 222 220 221 223 224 224 225 226 226 224 223 223 226 230 231 229 227 226 227 230 232 233 235 237 238 237 235 233 235 237 239 242 244
206 209 214 220 225 229 230 225 222 228 240 254 268 276 284 293 299 301 306 313 317 321 319 306 291 288 295 303 301 293 284 279 273 262 248 240 234 228 224 221 221 221 222 221 222 223 221 219 222 228 232 234 233 232 228 224 223 226 229 229 231 232 232 230 230 228 227 230 233 232 231 229 228 229 231 234 236 239 241 242 240 238 237 237 239 242 245
205 208 212 216 221 224 221 216 219 231 249 264 274 283 292 302 307 308 313 322 327 329 324 305 293 298 307 308 302 296 290 284 280 263 245 238 234 227 224 224 224 224 224 223 223 225 225 223 223 227 233 236 237 236 234 231 227 226 228 230 231 234 235 235 235 234 231 230 232 234 233 232 231 230 232 234 236 238 240 242 244 244 243 242 241 243 245
205 208 208 211 215 216 213 212 221 236 254 270 280 293 306 313 318 319 323 331 338 340 333 315 306 314 318 313 307 303 297 298 296 263 241 235 233 226 223 225 226 228 228 226 226 226 227 227 226 227 232 237 237 234 233 233 231 228 228 230 231 233 235 236 237 239 239 236 236 235 234 235 235 234 234 235 237 239 239 239 242 245 246 246 246 246 246
204 204 203 205 207 209 208 209 223 238 254 272 286 303 315 322 329 330 332 341 346 346 343 332 320 323 325 318 312 307 298 299 299 249 233 231 229 223 222 224 226 228 230 229 229 228 228 230 230 229 232 235 233 229 228 228 229 229 228 231 234 234 235 236 237 239 241 242 241 238 236 237 239 238 235 234 236 240 241 241 240 243 246 248 249 249 248
200 198 198 200 200 203 205 209 223 237 253 273 287 303 313 324 333 334 337 347 350 348 350 345 326 325 333 332 322 307 291 281 241 212 218 221 222 218 218 222 222 225 229 230 231 231 230 230 230 229 230 233 230 225 223 223 225 226 223 226 232 234 235 235 235 236 238 240 242 243 242 243 245 243 239 235 235 238 242 245 244 243 246 248 250 250 250
194 193 195 195 193 197 205 213 224 235 253 275 285 299 312 326 333 335 344 353 350 348 355 355 335 327 343 353 351 321 299 288 178 193 211 216 220 218 213 215 218 221 227 229 231 233 232 229 228 227 229 233 233 230 226 223 222 222 220 220 226 231 233 233 232 232 234 236 239 242 244 247 249 247 241 238 237 237 238 243 246 246 246 249 250 251 251
191 191 192 190 188 193 204 216 226 235 253 274 282 293 309 326 327 336 356 358 348 349 1 3 351 341 352 6 15 19 326 331 151 191 216 223 227 222 214 214 218 223 227 227 228 232 232 231 230 230 230 233 235 232 229 225 222 219 216 214 217 225 228 228 229 230 230 232 236 239 242 246 250 250 244 239 239 240 238 237 242 246 247 249 252 251 250
189 189 189 187 187 193 203 213 223 234 251 264 276 286 308 328 324 336 4 3 352 354 7 11 7 360 1 12 26 41 52 29 205 218 238 249 247 238 229 226 227 230 231 229 227 227 228 230 232 234 234 235 235 233 228 222 217 216 216 214 217 223 222 220 222 224 226 229 232 235 237 241 245 247 246 242 240 241 240 237 238 242 245 247 248 244 242
187 186 185 184 187 195 200 205 210 222 246 265 278 290 318 337 323 330 5 8 357 359 12 20 17 10 7 12 29 41 46 47 192 224 237 247 246 242 239 238 236 234 232 231 228 225 225 227 230 233 234 235 236 235 232 226 218 213 215 216 220 223 221 216 213 211 215 216 212 211 214 221 231 238 243 243 235 231 232 232 233 237 241 243 245 243 242
186 184 183 184 188 195 196 195 198 215 252 278 290 304 332 343 324 326 6 13 359 1 20 26 22 19 15 15 24 31 29 29 27 14 321 287 264 242 230 231 233 231 227 226 225 223 222 223 228 231 232 234 236 235 236 237 233 226 225 226 230 236 239 236 227 222 222 217 207 205 207 212 222 227 230 234 226 222 224 226 227 231 234 235 238 241 242
184 182 182 183 188 193 190 183 185 197 240 279 305 326 344 351 341 341 9 16 0 3 23 29 26 29 29 27 30 29 20 19 24 22 14 358 335 269 212 212 218 220 219 219 219 220 218 219 225 231 233 235 238 236 237 242 244 245 246 245 246 250 253 254 250 246 246 247 242 240 236 229 233 234 231 232 226 220 221 224 226 230 231 232 233 235 236
182 181 180 183 188 189 182 172 170 160 43 15 360 353 358 2 354 353 10 15 4 4 18 26 26 30 35 36 39 38 31 29 30 29 25 17 13 15 201 204 207 212 216 216 215 216 218 219 223 229 232 236 239 239 240 244 249 252 254 254 254 254 253 255 257 256 256 258 257 255 254 251 250 249 243 239 234 226 223 224 225 227 230 232 233 234 236
180 180 180 183 188 185 174 164 148 89 42 29 16 4 7 8 1 5 17 19 9 6 13 21 26 29 34 40 43 42 38 37 36 35 31 23 19 20 9 228 214 216 220 219 216 215 217 220 223 227 231 234 238 240 241 244 248 249 250 252 253 253 252 251 253 256 257 259 260 260 260 260 259 256 253 249 245 238 231 228 227 227 229 230 230 232 235
179 179 180 184 187 180 169 160 140 92 54 40 34 26 25 20 10 8 18 26 17 9 12 19 24 28 39 46 47 45 43 41 40 39 35 27 20 19 17 2 236 227 227 226 223 219 218 219 221 225 229 232 236 240 241 241 243 244 245 247 248 250 251 249 249 251 254 257 260 261 261 261 260 257 255 254 252 246 236 231 230 229 229 230 231 232 235
179 179 180 184 184 176 166 160 141 100 58 42 44 50 53 46 29 17 25 41 32 16 16 24 29 40 52 57 57 55 51 45 41 37 34 30 25 20 16 10 336 263 245 237 231 226 222 221 222 224 228 231 233 236 238 239 240 240 240 240 241 243 246 247 247 247 249 251 254 257 258 257 256 254 251 250 250 247 240 235 234 232 229 230 232 234 236
178 179 181 183 181 174 166 158 137 97 56 43 51 66 68 58 54 54 53 55 45 26 28 41 52 60 64 66 65 60 54 48 41 36 33 30 26 22 16 9 355 328 295 266 250 238 230 226 226 228 232 234 235 236 238 238 239 239 238 237 237 238 240 242 243 244 244 245 245 246 249 250 251 250 247 244 244 243 241 239 239 237 233 230 231 234 234
178 179 181 182 178 172 165 155 140 106 64 50 58 74 80 70 67 72 72 70 62 50 49 59 69 73 74 71 66 59 52 46 39 34 31 27 24 21 17 11 2 345 317 284 265 255 244 235 231 231 234 237 238 238 239 239 240 240 239 239 239 239 239 240 240 240 241 241 240 240 244 247 246 243 240 239 239 237 236 236 238 239 240 237 235 234 232
178 179 181 181 177 172 166 157 144 110 68 57 64 78 90 88 83 84 86 80 70 68 76 88 91 90 85 72 61 53 45 39 34 31 29 26 22 19 15 11 4 354 337 303 269 257 251 246 239 233 231 232 234 235 236 238 240 240 240 240 241 241 241 241 241 241 241 239 237 235 236 238 236 233 232 234 235 232 229 229 231 234 236 235 233 233 232
179 180 181 179 176 173 166 159 148 115 80 71 77 83 87 85 82 86 88 78 71 80 92 103 105 98 82 66 55 47 41 35 30 28 27 25 21 18 15 12 7 360 349 324 281 255 248 246 244 238 232 229 229 231 232 233 235 237 238 239 239 240 240 239 239 238 236 231 229 227 225 225 227 228 228 229 231 230 227 226 228 230 232 232 231 231 231
179 181 181 179 176 173 168 161 151 115 81 77 80 76 73 76 78 80 81 72 70 83 94 105 110 97 75 61 52 43 37 32 28 27 27 25 22 19 16 14 12 7 0 344 307 270 254 247 243 240 237 231 228 229 230 230 230 231 232 232 232 233 233 232 232 231 227 221 221 222 223 223 224 226 227 227 229 231 230 230 232 234 234 234 235 235 233
180 181 180 178 176 173 169 162 147 107 74 71 76 76 76 82 85 86 89 83 78 87 101 114 114 98 76 61 48 38 32 29 27 26 26 25 23 21 20 18 17 14 10 1 341 308 277 259 249 246 244 240 235 232 231 231 231 231 230 229 229 229 228 227 227 228 227 224 222 223 224 226 225 226 227 228 228 229 230 232 234 235 235 235 236 238 238
181 181 180 178 176 173 169 161 143 108 76 65 66 73 85 98 100 99 108 112 102 103 118 129 121 100 78 57 41 32 28 26 26 25 25 26 25 23 22 22 22 21 19 14 3 346 321 286 263 256 253 249 246 244 240 238 237 236 234 233 233 233 232 232 232 233 233 232 231 228 227 229 232 233 233 233 231 229 228 229 230 230 232 233 236 238 242
182 181 180 178 177 173 168 161 146 117 87 68 59 60 79 101 107 108 118 123 119 121 131 136 127 106 80 49 36 30 24 23 25 24 25 27 26 24 24 25 26 26 27 25 20 11 359 335 288 269 260 252 248 245 242 241 241 241 239 238 238 238 238 237 238 240 240 239 239 237 234 234 235 236 236 235 234 233 231 230 229 228 227 228 229 231 232
182 182 180 178 177 175 168 162 155 133 97 76 60 53 70 96 104 111 121 123 120 126 134 138 133 113 82 43 32 27 20 21 24 24 25 27 26 25 26 28 29 30 31 32 32 30 28 26 7 315 280 262 252 245 239 236 236 237 237 237 238 239 239 239 238 239 239 239 239 238 236 235 236 237 237 237 237 236 236 235 234 233 232 231 230 229 228
183 182 180 178 178 177 172 166 163 152 118 93 73 59 74 99 106 111 122 122 123 132 139 144 139 124 93 44 29 22 17 20 23 23 25 27 26 25 26 29 31 33 34 36 37 37 39 42 43 37 4 287 268 259 251 246 242 239 237 234 232 231 231 233 234 234 234 233 233 233 232 232 233 235 237 238 239 239 239 239 239 239 239 238 238 238 237
184 183 181 180 180 180 176 171 171 167 145 115 92 76 86 114 120 115 117 124 136 149 152 152 150 147 129 39 27 18 15 18 21 21 25 28 26 25 25 27 30 33 35 38 40 41 41 43 45 47 44 26 333 282 265 262 262 259 254 249 244 238 233 231 231 232 232 230 230 230 230 230 232 234 236 238 239 240 241 241 241 241 241 241 241 242 242
185 185 183 181 182 182 180 179 180 177 162 134 109 93 105 137 148 128 119 130 149 160 159 158 162 172 184 21 19 13 12 15 17 19 25 27 26 26 26 26 28 32 34 37 39 41 42 42 43 43 41 36 29 11 297 270 268 269 267 263 257 252 247 242 239 237 236 235 234 234 235 236 236 237 239 240 241 242 242 242 242 241 241 241 242 243 244
186 186 184 182 184 186 184 185 189 186 171 154 134 109 122 158 179 164 135 142 159 169 169 168 176 191 206 263 3 6 8 10 13 18 22 23 25 27 27 26 27 30 32 35 38 40 41 42 42 43 41 36 29 15 348 311 282 267 262 261 259 257 255 253 249 245 242 239 236 234 234 236 239 242 244 245 246 246 246 246 245 244 243 243 243 244 245
187 187 185 184 187 190 188 189 195 193 179 171 172 152 139 175 193 191 164 152 161 169 170 172 187 208 222 246 332 357 0 2 8 17 19 18 22 26 27 26 26 28 29 31 34 36 38 39 40 41 40 37 32 22 3 330 301 285 278 275 273 269 266 263 259 255 252 248 243 237 232 230 233 237 240 242 244 245 246 247 248 249 249 249 249 249 249
187 187 186 186 189 191 190 193 200 198 187 184 192 190 171 188 198 199 192 171 162 167 170 176 192 212 230 254 293 327 343 352 4 13 12 10 16 23 24 24 24 25 27 28 29 32 34 34 35 35 35 35 33 30 22 3 332 309 296 290 285 280 275 271 266 262 258 255 252 249 244 239 237 236 236 236 237 238 239 241 243 246 248 249 249 250 251
187 187 187 189 191 192 192 196 202 201 193 193 201 204 192 193 200 203 203 187 168 169 176 185 199 213 223 236 259 286 319 340 355 3 2 2 9 15 18 20 21 22 23 24 25 27 29 29 29 29 29 29 29 29 26 20 10 357 334 312 298 291 286 281 275 269 264 260 257 256 254 251 248 244 242 242 242 242 242 242 242 243 245 246 247 248 249
187 188 189 191 193 193 194 199 204 204 198 196 201 209 206 195 197 206 211 200 179 175 182 193 208 223 232 240 252 268 293 318 335 345 349 354 1 5 9 13 16 18 20 19 19 21 23 23 22 22 22 22 24 25 23 21 18 14 6 347 323 304 293 288 286 283 278 273 267 263 259 256 254 252 250 249 249 249 249 249 248 248 248 249 249 250 251
187 189 190 192 194 195 196 201 206 206 203 199 202 210 213 200 195 205 213 210 195 188 195 203 212 223 234 242 249 257 273 291 309 323 332 341 349 354 358 3 7 11 15 15 12 14 17 18 17 15 14 15 17 18 19 19 18 17 14 8 354 331 308 294 288 286 285 283 280 276 271 266 262 259 255 252 251 250 250 250 251 251 250 250 251 251 252
188 189 191 192 194 196 198 202 207 209 207 204 205 212 217 206 199 206 215 216 210 208 215 221 223 226 232 240 248 257 269 279 289 303 314 324 334 340 345 350 355 359 5 8 7 7 11 12 11 8 7 8 10 11 12 14 15 14 13 10 5 356 340 317 296 284 280 278 277 277 276 274 271 269 265 262 259 257 255 254 253 252 251 250 249 248 249
190 190 191 192 194 197 200 204 208 211 210 208 209 213 218 214 207 210 216 218 214 214 225 236 240 239 241 246 252 260 270 276 281 291 301 309 318 325 331 338 344 347 352 358 0 1 3 5 5 3 1 1 2 4 6 7 8 9 9 7 4 359 352 340 321 300 287 280 276 274 273 273 273 272 272 270 268 265 263 261 259 257 255 253 251 249 249
192 191 191 192 195 199 202 204 208 210 211 210 211 214 219 219 213 212 217 220 219 218 225 238 246 250 252 254 258 263 270 275 279 286 293 300 307 315 321 327 334 337 341 347 351 352 354 358 359 357 356 356 356 357 359 1 2 3 4 3 1 357 353 347 336 318 302 292 285 279 276 273 272 272 272 271 270 268 266 265 263 262 261 260 259 257 254
193 192 192 193 197 201 204 206 209 210 210 210 212 216 220 221 217 217 222 226 229 229 232 239 250 256 258 259 260 263 267 271 275 280 287 294 301 307 312 317 324 328 331 337 341 343 345 349 351 350 350 351 351 351 352 354 357 359 359 359 358 356 352 348 342 330 316 304 296 289 283 278 274 272 271 270 269 267 266 265 264 263 262 262 262 262 261
194 193 194 195 198 202 206 209 211 212 212 210 211 214 219 220 220 222 228 232 235 239 244 249 254 258 259 258 259 261 265 270 275 279 283 289 296 301 305 309 315 320 324 329 333 334 335 339 342 344 345 346 346 346 346 348 351 354 355 355 355 354 351 349 345 338 328 317 308 301 293 285 279 274 271 268 267 267 266 265 264 263 263 263 262 262 262
194 195 195 197 199 203 208 210 211 213 213 212 213 216 219 220 221 227 236 239 238 242 247 251 254 260 265 267 265 262 263 268 273 279 282 286 291 296 301 304 309 314 318 323 326 326 328 332 334 337 339 340 340 340 341 342 345 348 350 351 351 351 350 349 348 344 336 327 319 312 305 296 287 280 276 272 270 268 267 265 264 263 263 263 263 263 263
195 196 197 198 200 204 207 210 211 212 213 213 214 218 221 223 225 232 242 245 241 241 245 249 254 261 267 269 268 267 266 267 271 276 280 284 288 293 297 302 306 309 314 319 321 320 320 324 327 330 334 335 335 335 335 336 338 341 344 346 348 349 349 349 349 347 343 336 328 320 314 306 297 287 280 275 272 271 270 268 266 264 264 263 262 262 263
196 196 199 200 202 205 207 209 210 211 211 212 214 218 224 229 232 235 241 244 246 250 255 261 265 268 270 273 274 274 272 272 275 278 280 283 286 291 296 302 306 308 312 316 316 314 314 318 321 324 328 331 330 329 329 331 333 335 338 342 345 346 347 348 349 349 347 343 336 328 321 316 310 299 288 280 275 272 271 270 268 266 266 265 264 263 263
197 198 200 202 204 206 208 209 210 210 210 212 214 220 227 233 235 235 241 252 262 271 275 273 270 270 271 274 276 276 274 274 277 280 281 283 287 291 297 303 306 309 312 314 312 310 312 315 316 318 322 326 326 325 325 326 328 330 333 338 342 344 345 346 347 348 348 346 342 335 327 322 318 311 300 291 283 277 274 273 272 270 268 266 264 262 260
199 199 201 203 205 206 208 208 208 208 210 213 217 224 232 238 240 240 246 258 271 282 285 278 272 268 267 269 274 277 278 279 280 278 278 282 288 294 299 304 306 307 309 310 309 309 311 312 312 315 320 323 323 321 321 321 323 325 329 334 338 341 343 344 346 347 347 347 345 340 333 327 323 317 307 298 290 284 280 277 275 274 272 269 265 262 260
201 201 202 204 205 205 206 206 206 208 212 216 221 227 234 241 246 251 256 264 274 283 285 279 272 269 269 271 276 279 282 284 285 284 284 289 294 298 300 304 307 307 307 306 308 310 310 309 310 313 318 320 319 319 318 317 319 322 326 330 334 338 340 342 344 345 346 346 345 343 338 333 329 325 318 308 299 291 285 279 275 273 273 271 268 265 262
204 203 204 204 205 204 204 205 206 209 213 218 223 228 234 241 249 257 265 273 280 284 284 279 272 270 271 273 277 281 284 286 287 288 291 295 299 301 303 306 307 306 305 307 309 309 308 307 310 314 317 317 317 317 317 316 316 319 322 327 331 334 337 339 341 343 344 346 346 345 342 337 333 330 327 321 311 301 294 285 275 269 269 270 269 265 263
204 205 204 204 203 202 202 203 206 210 214 219 224 230 236 245 254 263 273 278 279 279 281 281 278 273 270 269 272 278 285 288 290 291 295 298 300 303 306 308 308 306 307 309 310 308 307 308 311 314 314 314 314 315 315 314 314 316 320 324 327 331 334 337 338 340 342 344 345 345 344 340 335 332 330 328 321 311 301 292 281 272 269 268 266 265 266
204 204 203 201 200 201 201 202 206 212 217 223 228 234 241 250 258 266 271 273 273 274 279 282 280 276 272 271 273 277 282 286 289 292 296 298 299 302 305 306 307 308 310 310 308 306 306 308 310 312 312 313 313 314 314 313 313 314 318 322 325 328 332 333 335 337 340 342 344 345 345 342 338 334 331 330 326 318 309 299 287 278 271 268 268 273 279
203 203 201 200 200 201 202 203 208 214 220 226 232 237 242 250 257 262 264 266 270 276 281 281 278 275 275 277 280 283 284 287 290 294 297 298 299 301 304 307 309 311 311 309 306 305 305 305 306 308 309 311 312 313 313 312 312 314 316 320 324 327 329 330 332 335 337 339 341 342 344 343 340 335 332 331 329 323 315 305 295 285 279 277 279 284 286
202 201 200 199 199 201 203 206 210 217 223 229 235 239 244 250 255 259 261 265 269 274 275 273 271 273 276 280 286 291 293 294 297 302 304 304 304 305 307 309 311 311 308 305 304 304 304 304 304 306 308 309 311 312 311 311 311 313 315 318 322 325 325 326 328 331 334 336 338 340 342 342 340 336 333 332 332 329 322 315 307 300 295 293 291 290 288
Height
5623 5624 5624 5625 5626 5626 5627 5628 5628 5628 5629 5629 5629 5629 5629 5628 5627 5627 5627 5626 5625 5624 5623 5622 5620 5619 5619 5618 5617 5616 5615 5615 5614 5613 5614 5616 5617 5618 5620 5623 5625 5627 5629 5631 5632 5633 5635 5636 5638 5640 5641 5642 5643 5645 5647 5650 5652 5654 5656 5657 5659 5660 5662 5665 5668 5669 5670 5671 5672 5674 5676 5678 5679 5681 5682 5683 5685 5687 5688 5690 5691 5692 5693 5694 5695 5696 5697
5621 5622 5623 5623 5624 5625 5626 5626 5627 5627 5627 5627 5628 5628 5627 5626 5626 5625 5624 5624 5622 5621 5619 5618 5617 5616 5616 5615 5614 5612 5611 5610 5610 5609 5609 5610 5612 5613 5616 5618 5620 5623 5625 5628 5629 5630 5631 5633 5635 5637 5639 5641 5642 5642 5644 5646 5648 5650 5652 5654 5656 5658 5659 5662 5664 5665 5666 5667 5669 5671 5673 5675 5677 5678 5679 5681 5682 5684 5686 5687 5688 5690 5691 5692 5693 5694 5695
5619 5620 5621 5622 5623 5623 5624 5625 5625 5626 5626 5626 5626 5626 5626 5625 5624 5623 5622 5621 5620 5618 5617 5615 5614 5613 5613 5612 5610 5609 5607 5606 5605 5604 5604 5606 5607 5609 5612 5614 5616 5619 5621 5624 5627 5628 5629 5631 5632 5634 5636 5639 5641 5641 5642 5644 5646 5648 5649 5651 5653 5654 5656 5658 5661 5662 5662 5664 5666 5668 5670 5672 5674 5675 5677 5679 5680 5681 5683 5684 5685 5686 5688 5689 5691 5692 5693
5618 5619 5620 5621 5621 5622 5623 5624 5624 5624 5625 5625 5625 5625 5624 5624 5623 5622 5621 5619 5618 5616 5614 5613 5612 5611 5610 5609 5607 5605 5604 5603 5602 5600 5600 5602 5604 5606 5609 5611 5613 5615 5617 5620 5624 5626 5627 5628 5630 5631 5633 5636 5638 5640 5641 5642 5644 5646 5647 5649 5650 5652 5653 5655 5658 5659 5660 5661 5663 5665 5667 5669 5671 5672 5674 5676 5678 5679 5680 5681 5682 5683 5685 5687 5688 5689 5691
5616 5617 5618 5619 5620 5621 5622 5622 5623 5623 5623 5623 5623 5623 5623 5622 5621 5620 5619 5618 5616 5614 5613 5611 5610 5609 5608 5606 5604 5602 5601 5600 5599 5598 5598 5599 5601 5604 5606 5608 5610 5612 5615 5618 5621 5622 5624 5626 5628 5629 5631 5634 5636 5638 5639 5640 5641 5643 5644 5646 5647 5649 5650 5652 5654 5656 5657 5659 5660 5661 5664 5666 5668 5669 5671 5672 5674 5676 5677 5678 5679 5680 5682 5683 5685 5687 5689
5615 5616 5617 5618 5619 5620 5620 5621 5622 5622 5622 5622 5622 5622 5621 5620 5620 5618 5617 5617 5615 5613 5611 5610 5609 5607 5605 5603 5602 5600 5599 5598 5597 5596 5597 5598 5600 5602 5604 5606 5608 5610 5613 5615 5618 5620 5622 5624 5625 5628 5630 5632 5634 5635 5636 5638 5639 5640 5642 5643 5644 5646 5647 5650 5652 5653 5655 5656 5656 5658 5660 5663 5664 5666 5668 5670 5671 5672 5673 5675 5676 5677 5678 5680 5682 5684 5686
5613 5615 5616 5617 5618 5618 5619 5620 5621 5621 5621 5621 5621 5620 5620 5619 5618 5617 5616 5615 5613 5612 5610 5608 5607 5606 5604 5602 5600 5599 5598 5597 5596 5596 5596 5597 5599 5601 5602 5604 5606 5608 5611 5613 5616 5618 5620 5622 5624 5626 5628 5630 5631 5632 5634 5635 5636 5638 5639 5641 5642 5643 5645 5647 5649 5650 5652 5653 5654 5655 5657 5659 5661 5662 5665 5667 5668 5669 5670 5672 5673 5674 5675 5677 5679 5680 5682
5612 5614 5615 5616 5617 5618 5618 5619 5620 5620 5620 5620 5620 5619 5619 5618 5617 5616 5615 5614 5612 5611 5609 5607 5606 5605 5603 5601 5599 5598 5598 5596 5595 5596 5597 5597 5598 5600 5601 5602 5604 5606 5608 5611 5613 5615 5618 5620 5622 5624 5626 5627 5628 5630 5631 5633 5634 5635 5637 5638 5640 5641 5642 5644 5646 5647 5648 5650 5651 5652 5654 5656 5657 5658 5660 5663 5665 5666 5667 5668 5670 5672 5673 5675 5676 5678 5680
5611 5613 5614 5615 5616 5617 5618 5618 5619 5619 5619 5619 5619 5619 5618 5617 5616 5616 5614 5613 5612 5610 5609 5607 5605 5604 5603 5601 5599 5598 5597 5597 5596 5596 5597 5598 5598 5599 5601 5602 5604 5605 5607 5609 5611 5613 5615 5618 5620 5622 5623 5624 5625 5628 5629 5630 5632 5633 5634 5636 5637 5639 5640 5642 5643 5644 5645 5647 5648 5649 5651 5652 5653 5654 5655 5658 5660 5662 5664 5665 5667 5669 5671 5672 5674 5675 5677
5610 5612 5613 5614 5615 5616 5617 5618 5618 5618 5618 5618 5618 5618 5617 5617 5616 5615 5614 5612 5611 5610 5608 5606 5605 5604 5602 5601 5599 5598 5598 5597 5597 5597 5598 5598 5598 5599 5600 5602 5603 5604 5606 5608 5609 5610 5613 5615 5617 5618 5619 5620 5622 5626 5627 5628 5630 5631 5632 5634 5635 5636 5637 5639 5640 5641 5642 5644 5645 5646 5648 5649 5649 5650 5651 5653 5654 5656 5659 5661 5663 5665 5667 5670 5671 5672 5673
5609 5611 5612 5613 5615 5616 5616 5617 5617 5617 5617 5617 5617 5617 5616 5616 5615 5614 5613 5612 5611 5610 5608 5606 5605 5603 5602 5601 5600 5599 5598 5598 5598 5598 5598 5598 5599 5600 5600 5601 5602 5603 5604 5605 5607 5608 5610 5612 5613 5614 5615 5617 5620 5624 5625 5626 5628 5629 5630 5631 5632 5633 5634 5635 5637 5638 5640 5641 5642 5644 5645 5645 5646 5647 5647 5648 5650 5652 5654 5657 5660 5662 5665 5667 5669 5669 5670
5609 5610 5611 5613 5614 5615 5616 5616 5616 5616 5616 5616 5616 5616 5615 5615 5614 5614 5612 5611 5610 5609 5607 5606 5605 5603 5602 5601 5600 5599 5598 5598 5598 5598 5598 5598 5598 5598 5599 5600 5601 5601 5603 5604 5605 5606 5607 5608 5609 5610 5612 5615 5618 5621 5622 5623 5625 5626 5627 5628 5629 5631 5632 5632 5634 5636 5637 5639 5640 5641 5642 5643 5644 5644 5644 5645 5647 5649 5651 5654 5657 5659 5662 5664 5665 5666 5667
5608 5609 5611 5612 5613 5614 5615 5615 5615 5616 5615 5615 5615 5615 5614 5614 5614 5613 5612 5610 5610 5609 5607 5606 5605 5604 5603 5602 5601 5599 5599 5598 5598 5598 5597 5597 5597 5597 5597 5598 5599 5600 5601 5602 5603 5604 5605 5606 5606 5607 5609 5612 5615 5617 5619 5620 5622 5623 5624 5625 5627 5628 5629 5630 5632 5633 5634 5636 5637 5638 5640 5641 5641 5642 5643 5644 5645 5647 5648 5651 5653 5656 5658 5660 5661 5663 5664
5607 5609 5610 5612 5613 5614 5614 5614 5615 5615 5615 5614 5614 5614 5613 5613 5613 5612 5611 5610 5609 5608 5607 5606 5605 5605 5603 5602 5601 5600 5599 5599 5598 5597 5597 5596 5596 5596 5596 5597 5598 5598 5599 5600 5601 5602 5603 5604 5605 5606 5608 5610 5612 5614 5616 5618 5619 5621 5622 5623 5625 5626 5627 5628 5629 5631 5632 5633 5634 5635 5637 5639 5640 5641 5642 5643 5644 5645 5646 5648 5650 5653 5655 5656 5659 5660 5661
5607 5608 5610 5611 5612 5613 5613 5614 5614 5614 5614 5613 5613 5613 5612 5612 5612 5611 5610 5609 5609 5608 5607 5606 5605 5605 5604 5603 5602 5601 5600 5599 5599 5598 5597 5597 5596 5596 5596 5596 5597 5598 5598 5599 5600 5601 5602 5603 5604 5604 5606 5608 5609 5611 5614 5615 5617 5619 5620 5621 5622 5624 5625 5626 5627 5628 5629 5630 5632 5633 5635 5637 5638 5639 5641 5642 5643 5644 5645 5646 5648 5650 5651 5653 5656 5657 5658
5606 5608 5609 5610 5611 5612 5613 5613 5613 5613 5613 5612 5612 5612 5612 5611 5611 5611 5610 5609 5609 5608 5607 5606 5605 5605 5604 5603 5603 5602 5601 5600 5599 5599 5598 5597 5597 5596 5596 5596 5597 5597 5598 5598 5599 5600 5601 5601 5602 5603 5604 5606 5607 5609 5611 5613 5614 5616 5617 5619 5620 5621 5623 5624 5625 5626 5627 5628 5630 5631 5632 5634 5636 5638 5639 5640 5641 5642 5643 5644 5645 5647 5649 5651 5653 5654 5655
5605 5607 5608 5610 5611 5611 5612 5612 5612 5612 5612 5612 5612 5611 5611 5611 5611 5610 5609 5609 5609 5608 5607 5606 5606 5605 5605 5604 5603 5603 5602 5601 5601 5600 5599 5598 5597 5597 5596 5596 5596 5597 5597 5597 5598 5598 5599 5600 5601 5602 5603 5604 5606 5607 5608 5610 5611 5613 5615 5616 5617 5618 5619 5621 5622 5623 5625 5626 5627 5628 5630 5631 5633 5635 5636 5638 5639 5640 5642 5642 5644 5645 5647 5649 5650 5651 5652
5605 5606 5608 5609 5610 5611 5611 5612 5612 5612 5612 5612 5611 5611 5611 5611 5610 5610 5610 5609 5609 5608 5607 5607 5606 5606 5605 5605 5604 5604 5603 5602 5602 5601 5600 5599 5598 5597 5597 5596 5596 5596 5596 5596 5596 5597 5598 5599 5600 5601 5602 5603 5604 5605 5606 5607 5608 5610 5612 5613 5614 5615 5616 5617 5619 5620 5622 5624 5625 5626 5627 5628 5630 5631 5633 5635 5636 5638 5640 5641 5642 5643 5644 5646 5647 5648 5649
5604 5606 5607 5608 5609 5610 5610 5611 5611 5611 5611 5611 5611 5611 5611 5610 5610 5610 5609 5609 5609 5608 5608 5607 5607 5606 5606 5606 5605 5605 5604 5603 5603 5602 5601 5600 5599 5598 5597 5597 5596 5596 5595 5595 5595 5595 5596 5597 5598 5599 5600 5600 5601 5603 5603 5604 5605 5607 5609 5610 5611 5612 5613 5614 5616 5617 5619 5620 5622 5623 5623 5625 5626 5628 5629 5631 5633 5635 5637 5638 5639 5640 5641 5643 5644 5645 5645
5603 5605 5606 5608 5608 5609 5610 5610 5611 5611 5611 5611 5611 5611 5610 5610 5610 5610 5609 5609 5609 5608 5608 5608 5607 5607 5607 5607 5606 5606 5605 5604 5604 5602 5601 5600 5599 5598 5597 5596 5595 5595 5594 5594 5593 5593 5594 5594 5595 5596 5597 5598 5599 5600 5601 5602 5603 5604 5606 5607 5608 5610 5611 5612 5613 5614 5615 5617 5618 5619 5621 5622 5623 5624 5625 5627 5628 5631 5633 5634 5635 5636 5638 5640 5641 5641 5641
5602 5604 5606 5607 5608 5609 5609 5610 5610 5610 5610 5610 5610 5610 5610 5610 5609 5609 5609 5609 5609 5608 5608 5608 5608 5608 5608 5608 5607 5607 5606 5605 5604 5603 5602 5600 5599 5598 5597 5596 5594 5593 5592 5591 5591 5591 5591 5591 5592 5594 5594 5595 5597 5598 5599 5600 5601 5602 5603 5604 5606 5607 5608 5609 5610 5611 5612 5614 5615 5616 5618 5619 5620 5620 5622 5623 5624 5626 5629 5630 5631 5633 5634 5636 5637 5638 5639
5602 5603 5605 5606 5607 5608 5609 5609 5610 5610 5610 5610 5610 5610 5609 5609 5609 5609 5609 5609 5609 5608 5608 5609 5609 5609 5609 5608 5608 5607 5606 5605 5604 5603 5602 5600 5599 5598 5596 5595 5593 5591 5590 5588 5587 5587 5588 5588 5589 5590 5591 5592 5594 5595 5596 5597 5598 5599 5600 5602 5603 5604 5605 5606 5608 5609 5609 5611 5612 5613 5614 5615 5616 5617 5618 5619 5620 5622 5624 5625 5627 5629 5631 5632 5634 5635 5636
5601 5603 5604 5605 5606 5607 5608 5609 5609 5609 5610 5610 5609 5609 5609 5609 5609 5609 5608 5608 5608 5608 5609 5609 5609 5609 5609 5609 5608 5608 5607 5606 5605 5604 5602 5601 5599 5598 5596 5595 5593 5590 5588 5586 5585 5585 5585 5586 5586 5587 5588 5590 5591 5592 5593 5594 5596 5597 5598 5599 5600 5601 5602 5603 5605 5606 5606 5607 5609 5610 5611 5612 5613 5614 5615 5616 5617 5619 5621 5622 5624 5625 5627 5628 5630 5631 5632
5600 5602 5603 5605 5606 5606 5607 5608 5608 5609 5609 5609 5609 5609 5609 5609 5609 5609 5608 5608 5608 5608 5609 5609 5609 5610 5609 5609 5609 5608 5608 5607 5605 5604 5603 5602 5600 5598 5597 5595 5592 5590 5587 5585 5584 5583 5583 5584 5585 5585 5586 5587 5588 5590 5591 5592 5593 5594 5595 5596 5597 5598 5599 5600 5602 5603 5603 5604 5605 5606 5607 5609 5610 5611 5612 5613 5615 5616 5618 5619 5621 5622 5624 5625 5625 5626 5628
5599 5601 5603 5604 5605 5606 5607 5607 5608 5608 5609 5609 5608 5608 5608 5608 5608 5608 5609 5609 5608 5609 5609 5610 5610 5610 5610 5610 5609 5609 5608 5607 5606 5605 5603 5602 5600 5599 5597 5595 5593 5590 5587 5585 5584 5583 5583 5583 5583 5584 5585 5586 5587 5588 5589 5589 5590 5591 5592 5593 5594 5595 5596 5597 5598 5599 5600 5601 5602 5603 5605 5606 5607 5608 5609 5610 5611 5613 5614 5616 5617 5619 5620 5621 5622 5623 5624
5598 5600 5602 5603 5604 5605 5606 5606 5607 5608 5608 5608 5608 5608 5608 5608 5608 5608 5608 5609 5609 5609 5609 5610 5610 5610 5610 5610 5610 5609 5608 5607 5606 5605 5604 5602 5601 5599 5598 5596 5593 5591 5588 5586 5584 5583 5583 5583 5583 5583 5584 5585 5586 5587 5587 5588 5589 5589 5590 5591 5592 5593 5594 5595 5595 5596 5597 5598 5599 5601 5602 5603 5604 5605 5606 5606 5608 5609 5611 5612 5613 5614 5616 5617 5618 5619 5620
5597 5599 5601 5602 5603 5604 5605 5606 5606 5607 5608 5608 5608 5607 5608 5608 5608 5608 5608 5608 5609 5609 5609 5610 5610 5610 5610 5610 5610 5610 5609 5608 5607 5606 5604 5603 5601 5600 5598 5596 5594 5592 5589 5587 5585 5584 5583 5583 5583 5583 5583 5584 5584 5585 5586 5587 5587 5588 5589 5589 5590 5591 5591 5592 5592 5593 5594 5595 5596 5598 5599 5600 5600 5601 5601 5602 5604 5606 5607 5608 5609 5610 5611 5612 5613 5614 5615
5596 5598 5600 5601 5602 5603 5604 5605 5606 5607 5607 5607 5607 5607 5607 5607 5608 5608 5608 5608 5609 5609 5609 5610 5610 5610 5610 5610 5610 5610 5609 5608 5607 5606 5605 5603 5602 5601 5599 5598 5595 5593 5591 5589 5586 5585 5584 5584 5583 5583 5583 5583 5584 5584 5585 5585 5586 5586 5587 5588 5588 5589 5589 5589 5590 5591 5592 5592 5593 5594 5595 5596 5597 5597 5598 5599 5600 5602 5603 5604 5605 5606 5607 5607 5608 5609 5611
5595 5597 5599 5600 5602 5603 5604 5604 5605 5606 5607 5607 5607 5607 5607 5607 5607 5608 5608 5608 5608 5609 5609 5610 5610 5610 5610 5610 5610 5610 5609 5608 5608 5607 5605 5604 5603 5602 5600 5598 5597 5595 5593 5591 5588 5587 5585 5584 5584 5583 5583 5583 5583 5584 5584 5584 5584 5585 5585 5585 5586 5586 5587 5587 5588 5588 5589 5589 5590 5591 5592 5593 5593 5594 5595 5595 5596 5598 5599 5599 5600 5601 5601 5602 5603 5604 5606
5594 5596 5598 5599 5601 5602 5603 5604 5605 5606 5606 5607 5607 5607 5607 5607 5607 5607 5608 5608 5608 5609 5609 5609 5610 5610 5610 5610 5610 5610 5609 5609 5608 5607 5606 5605 5604 5602 5601 5599 5597 5596 5594 5592 5590 5589 5587 5585 5585 5584 5584 5583 5583 5583 5583 5583 5584 5584 5584 5584 5584 5584 5584 5585 5585 5586 5586 5587 5588 5588 5589 5589 5590 5590 5591 5592 5593 5594 5594 5594 5595 5596 5596 5597 5598 5599 5601
5593 5595 5597 5599 5600 5601 5602 5603 5604 5605 5606 5606 5606 5607 5607 5606 5607 5607 5607 5608 5608 5608 5609 5609 5610 5610 5610 5610 5610 5610 5609 5609 5608 5607 5606 5605 5604 5603 5601 5600 5598 5597 5595 5594 5592 5590 5589 5587 5586 5585 5584 5584 5583 5583 5583 5583 5583 5583 5582 5582 5582 5582 5583 5583 5583 5584 5584 5585 5585 5586 5586 5587 5587 5587 5588 5588 5589 5589 5590 5590 5590 5591 5592 5593 5594 5595 5596
5592 5594 5596 5598 5599 5600 5602 5603 5603 5604 5605 5605 5606 5606 5606 5606 5606 5606 5607 5608 5608 5608 5609 5609 5609 5610 5610 5610 5610 5610 5609 5609 5608 5607 5606 5606 5605 5603 5602 5601 5599 5598 5596 5595 5594 5592 5591 5589 5588 5587 5586 5585 5584 5583 5583 5583 5582 5582 5581 5581 5581 5581 5581 5581 5581 5581 5581 5582 5582 5583 5584 5584 5585 5585 5585 5585 5585 5585 5586 5586 5586 5587 5588 5589 5590 5591 5592
5591 5594 5595 5597 5598 5600 5601 5602 5603 5603 5604 5605 5605 5605 5606 5606 5606 5606 5606 5607 5607 5608 5608 5608 5609 5609 5610 5610 5609 5609 5609 5609 5608 5607 5606 5606 5605 5604 5602 5601 5600 5598 5597 5596 5595 5593 5592 5591 5589 5588 5587 5586 5585 5584 5583 5582 5581 5581 5580 5580 5580 5580 5579 5579 5579 5579 5579 5579 5579 5580 5580 5581 5582 5582 5582 5582 5582 5582 5582 5582 5583 5584 5584 5585 5586 5587 5588
5590 5593 5595 5596 5597 5599 5600 5601 5602 5603 5604 5604 5604 5605 5605 5605 5605 5606 5606 5607 5607 5607 5607 5608 5608 5609 5609 5609 5609 5609 5609 5608 5608 5607 5606 5606 5605 5604 5603 5601 5600 5599 5597 5596 5595 5594 5593 5592 5590 5589 5588 5587 5585 5584 5583 5582 5581 5580 5579 5579 5578 5578 5578 5577 5577 5577 5577 5577 5577 5577 5577 5578 5578 5578 5578 5578 5578 5578 5578 5579 5580 5580 5581 5582 5583 5583 5584
5589 5591 5593 5595 5596 5598 5599 5600 5601 5602 5603 5603 5604 5604 5604 5605 5605 5605 5605 5606 5606 5606 5607 5607 5607 5608 5608 5608 5608 5608 5608 5608 5607 5607 5606 5605 5604 5603 5603 5602 5600 5599 5598 5596 5595 5594 5593 5592 5591 5589 5588 5587 5586 5585 5583 5582 5581 5580 5579 5578 5577 5577 5576 5575 5575 5574 5574 5574 5574 5574 5574 5574 5574 5574 5574 5574 5574 5574 5575 5575 5576 5576 5577 5578 5579 5579 5580
5588 5590 5592 5594 5595 5597 5598 5599 5600 5601 5602 5602 5603 5603 5604 5604 5604 5604 5605 5605 5605 5605 5606 5606 5606 5607 5607 5607 5607 5607 5607 5607 5607 5606 5606 5605 5604 5603 5602 5601 5600 5599 5598 5597 5596 5594 5593 5592 5591 5590 5588 5587 5586 5585 5584 5582 5581 5580 5578 5577 5576 5575 5575 5574 5573 5573 5572 5572 5571 5571 5571 5571 5571 5571 5571 5571 5571 5571 5571 5572 5572 5573 5573 5574 5575 5575 5575
5587 5589 5591 5592 5594 5596 5597 5598 5599 5600 5601 5601 5602 5602 5603 5603 5603 5604 5604 5604 5604 5604 5605 5605 5605 5606 5606 5606 5606 5606 5606 5606 5606 5606 5605 5604 5604 5603 5602 5601 5600 5599 5598 5597 5596 5594 5593 5592 5590 5589 5588 5587 5586 5585 5583 5582 5581 5579 5578 5576 5575 5574 5573 5572 5571 5571 5570 5569 5569 5568 5568 5568 5568 5568 5568 5568 5568 5568 5568 5568 5568 5569 5569 5570 5571 5571 5571
5585 5587 5589 5591 5593 5595 5596 5597 5598 5599 5600 5600 5601 5602 5602 5602 5602 5603 5603 5603 5604 5604 5604 5604 5604 5604 5605 5605 5605 5605 5605 5605 5605 5605 5604 5604 5603 5602 5601 5601 5600 5599 5598 5597 5596 5594 5593 5592 5590 5589 5588 5586 5585 5584 5583 5581 5580 5578 5577 5575 5574 5573 5571 5570 5570 5569 5568 5567 5566 5566 5565 5565 5565 5564 5565 5565 5565 5565 5565 5565 5565 5565 5566 5566 5567 5567 5567
5584 5586 5588 5590 5592 5593 5595 5596 5597 5597 5598 5599 5600 5601 5601 5601 5602 5602 5602 5602 5603 5603 5603 5603 5603 5603 5603 5604 5604 5604 5604 5604 5603 5603 5603 5603 5602 5601 5600 5600 5599 5598 5597 5596 5595 5594 5593 5591 5590 5589 5587 5586 5584 5583 5582 5581 5579 5578 5576 5575 5573 5571 5570 5569 5568 5567 5566 5565 5564 5563 5562 5562 5561 5561 5561 5561 5561 5561 5561 5561 5561 5562 5562 5562 5563 5563 5563
5583 5585 5587 5589 5591 5592 5593 5594 5595 5596 5597 5598 5599 5600 5600 5601 5601 5601 5601 5602 5602 5602 5602 5602 5602 5602 5602 5602 5603 5603 5602 5602 5602 5602 5602 5601 5601 5600 5599 5599 5598 5597 5596 5595 5594 5593 5592 5591 5589 5588 5587 5585 5584 5583 5581 5580 5579 5577 5576 5574 5572 5571 5569 5567 5566 5565 5563 5562 5561 5560 5559 5559 5558 5558 5558 5558 5557 5557 5557 5557 5558 5558 5558 5558 5559 5559 5559
5582 5584 5586 5588 5589 5591 5592 5593 5594 5595 5596 5597 5598 5599 5599 5600 5600 5600 5600 5600 5601 5601 5601 5601 5601 5601 5601 5601 5601 5601 5601 5601 5600 5600 5600 5600 5599 5599 5598 5597 5597 5596 5595 5594 5593 5592 5591 5590 5589 5587 5586 5585 5583 5582 5581 5579 5578 5577 5575 5573 5572 5570 5568 5566 5564 5563 5561 5560 5559 5557 5556 5556 5555 5555 5555 5554 5554 5554 5554 5554 5554 5554 5554 5555 5555 5555 5556
5581 5583 5585 5586 5588 5589 5591 5592 5593 5594 5595 5596 5597 5598 5598 5598 5599 5599 5599 5599 5600 5600 5600 5600 5599 5599 5599 5599 5599 5599 5599 5599 5599 5599 5599 5598 5598 5597 5597 5596 5596 5595 5594 5593 5592 5590 5589 5588 5587 5586 5585 5583 5582 5581 5579 5578 5577 5576 5574 5573 5571 5569 5567 5565 5564 5562 5560 5558 5557 5555 5554 5553 5552 5552 5551 5551 5551 5551 5551 5551 5551 5551 5551 5551 5551 5552 5552
5579 5581 5583 5585 5587 5588 5589 5591 5592 5593 5594 5595 5596 5596 5597 5597 5597 5598 5598 5598 5598 5598 5598 5598 5598 5598 5598 5598 5598 5598 5598 5598 5597 5597 5597 5597 5597 5596 5595 5595 5594 5593 5593 5592 5591 5589 5588 5587 5586 5584 5583 5582 5581 5579 5578 5577 5576 5575 5573 5572 5570 5568 5566 5565 5563 5561 5559 5557 5555 5553 5552 5551 5550 5549 5549 5548 5548 5548 5548 5548 5548 5548 5548 5548 5548 5548 5549
5578 5580 5582 5583 5585 5587 5588 5590 5591 5592 5593 5594 5595 5595 5595 5596 5596 5597 5597 5597 5597 5597 5597 5597 5596 5596 5596 5596 5596 5596 5596 5596 5596 5596 5595 5595 5595 5595 5594 5593 5593 5592 5591 5590 5589 5588 5586 5585 5584 5583 5582 5580 5579 5578 5577 5575 5574 5573 5572 5570 5569 5567 5565 5563 5561 5559 5557 5556 5554 5552 5550 5549 5548 5547 5546 5546 5545 5545 5545 5545 5545 5545 5545 5545 5545 5545 5545
5576 5578 5580 5582 5584 5585 5587 5588 5590 5591 5592 5593 5593 5594 5594 5594 5595 5595 5595 5595 5595 5595 5595 5595 5595 5595 5594 5594 5594 5594 5594 5594 5594 5594 5594 5593 5593 5593 5592 5592 5591 5590 5589 5588 5587 5586 5585 5584 5583 5581 5580 5579 5578 5576 5575 5574 5572 5571 5570 5569 5567 5565 5563 5562 5560 5558 5556 5554 5552 5550 5549 5547 5546 5545 5544 5543 5543 5543 5542 5542 5542 5542 5542 5542 5542 5542 5542
5575 5577 5579 5580 5582 5584 5586 5587 5589 5590 5591 5591 5592 5592 5593 5593 5594 5594 5594 5594 5593 5593 5594 5593 5593 5593 5593 5593 5592 5592 5592 5592 5592 5592 5592 5592 5592 5591 5591 5590 5589 5588 5588 5587 5585 5584 5583 5582 5581 5580 5579 5578 5576 5575 5573 5572 5571 5569 5568 5567 5565 5564 5562 5560 5558 5556 5554 5553 5551 5549 5547 5546 5544 5543 5542 5541 5541 5540 5540 5540 5540 5540 5540 5540 5540 5540 5540
5573 5575 5577 5579 5581 5583 5585 5586 5588 5589 5589 5590 5591 5591 5591 5592 5592 5592 5592 5592 5592 5592 5592 5592 5592 5591 5591 5591 5591 5591 5591 5591 5590 5590 5590 5590 5590 5590 5589 5589 5588 5587 5586 5584 5583 5582 5581 5580 5578 5577 5576 5575 5574 5573 5572 5571 5569 5568 5566 5565 5564 5562 5561 5559 5557 5555 5553 5551 5549 5548 5546 5544 5543 5542 5541 5540 5539 5538 5538 5538 5538 5537 5537 5537 5537 5537 5537
5572 5574 5575 5577 5580 5582 5584 5585 5586 5587 5588 5588 5589 5590 5590 5590 5590 5590 5590 5591 5591 5590 5590 5590 5590 5590 5590 5590 5589 5589 5589 5589 5589 5588 5588 5588 5588 5588 5587 5587 5586 5585 5584 5582 5581 5580 5579 5578 5577 5576 5575 5573 5572 5571 5570 5569 5568 5566 5565 5564 5562 5561 5559 5558 5556 5554 5552 5550 5548 5546 5545 5543 5541 5540 5539 5538 5538 5537 5536 5536 5535 5535 5535 5535 5535 5535 5534
5570 5572 5574 5576 5579 5581 5582 5584 5585 5585 5586 5587 5587 5588 5588 5588 5588 5588 5589 5589 5589 5588 5588 5588 5588 5588 5588 5588 5588 5588 5587 5587 5587 5587 5587 5586 5586 5585 5585 5585 5584 5583 5582 5581 5580 5578 5577 5576 5575 5574 5573 5572 5570 5569 5568 5567 5566 5565 5563 5562 5561 5559 5558 5556 5555 5553 5551 5549 5547 5546 5544 5542 5540 5539 5538 5537 5536 5535 5534 5533 5533 5533 5533 5533 5533 5532 5532
5568 5570 5573 5575 5577 5579 5581 5582 5583 5584 5585 5585 5586 5586 5587 5587 5587 5587 5587 5587 5587 5587 5587 5587 5586 5586 5587 5587 5587 5586 5586 5586 5585 5585 5585 5585 5584 5583 5583 5582 5582 5581 5580 5579 5578 5576 5575 5574 5572 5571 5570 5569 5568 5567 5566 5565 5564 5563 5562 5561 5559 5558 5556 5555 5554 5552 5550 5548 5546 5545 5543 5541 5539 5538 5537 5536 5535 5534 5533 5532 5531 5531 5531 5531 5531 5530 5530
5567 5569 5572 5574 5576 5578 5579 5580 5581 5582 5583 5584 5584 5585 5585 5585 5585 5586 5586 5586 5585 5585 5585 5585 5585 5585 5585 5585 5585 5585 5585 5584 5584 5584 5584 5583 5583 5582 5581 5580 5580 5579 5578 5577 5575 5574 5573 5572 5571 5570 5569 5567 5566 5565 5564 5563 5562 5561 5560 5559 5557 5556 5555 5553 5552 5550 5549 5547 5545 5543 5542 5540 5539 5537 5536 5535 5533 5532 5531 5530 5530 5529 5529 5529 5528 5528 5528
5566 5568 5571 5573 5575 5576 5578 5579 5580 5580 5581 5582 5582 5583 5583 5584 5584 5584 5584 5584 5584 5584 5584 5584 5584 5583 5583 5583 5583 5583 5583 5583 5582 5582 5582 5582 5581 5580 5580 5579 5578 5577 5576 5575 5574 5572 5571 5570 5569 5568 5567 5566 5565 5563 5562 5561 5560 5558 5558 5557 5556 5555 5553 5552 5550 5549 5547 5546 5544 5542 5541 5539 5538 5536 5535 5533 5532 5531 5530 5529 5528 5528 5527 5527 5526 5526 5525